This demonstration page uses our WeatherBlox Daily Observations layout. Learn more.

Left ArrowRight Arrow

38.80484, -77.04692

Hourly Observations for August 14, 2021

Temp ( °F °C ) Dew Point ( °F °C ) Humidity (%) Winds ( mph kmh ) Pressure ( in mb ) Visibility ( mi km ) Precip ( " mm )
12:52 am 00:52 Cloudy 75 23.9 71 21.7 88 88 SW 6 9 30.08 1019 10 16 N/A
1:52 am 01:52 Mostly Cloudy 75 23.9 71 21.7 88 88 S 5 7 30.08 1019 10 16 N/A
2:52 am 02:52 Mostly Cloudy 75 23.9 70 21.1 84 84 S 5 7 30.08 1019 10 16 N/A
3:52 am 03:52 Cloudy 75 23.9 70 21.1 84 84 N N/A 30.06 1018 10 16 N/A
4:52 am 04:52 Cloudy 74 23.3 69 20.6 85 85 SSW 6 9 30.08 1019 10 16 N/A
5:52 am 05:52 Mostly Cloudy 76 24.4 70 21.1 82 82 N N/A 30.07 1018 10 16 N/A
6:52 am 06:52 Mostly Cloudy 75 23.9 70 21.1 84 84 WSW 5 7 30.09 1019 10 16 N/A
7:52 am 07:52 Partly Cloudy 78 25.6 69 20.6 74 74 N N/A 30.09 1019 10 16 N/A
8:52 am 08:52 Mostly Cloudy 80 26.7 70 21.1 71 71 N N/A 30.10 1019 10 16 N/A
9:52 am 09:52 Mostly Cloudy 81 27.2 72 22.2 74 74 SSE 3 6 30.11 1020 10 16 N/A
10:52 am 10:52 Mostly Cloudy 84 28.9 73 22.8 70 70 SSE 3 6 30.12 1020 10 16 N/A
11:52 am 11:52 Mostly Cloudy 87 30.6 69 20.6 55 55 NW 10 17 30.13 1020 10 16 N/A
12:52 pm 12:52 Mostly Cloudy 89 31.7 71 21.7 55 55 NW 8 13 30.12 1020 10 16 N/A
1:52 pm 13:52 Mostly Cloudy 90 32.2 71 21.7 54 54 NW 8 13 30.10 1019 10 16 N/A
2:52 pm 14:52 Mostly Cloudy 92 33.3 71 21.7 51 51 NNW 8 13 30.09 1019 10 16 N/A
3:52 pm 15:52 Mostly Cloudy 90 32.2 70 21.1 52 52 NW 10 17 30.07 1018 10 16 N/A
4:52 pm 16:52 Mostly Cloudy 92 33.3 66 18.9 43 43 NW 7 11 30.07 1018 10 16 N/A
5:52 pm 17:52 Mostly Cloudy 88 31.1 68 20 52 52 NW 10 17 30.05 1018 10 16 N/A
6:52 pm 18:52 Mostly Cloudy 88 31.1 69 20.6 54 54 N 5 7 30.05 1018 10 16 N/A
7:52 pm 19:52 Cloudy 86 30 70 21.1 59 59 NNE 6 9 30.08 1019 10 16 N/A
8:52 pm 20:52 Cloudy 86 30 71 21.7 61 61 E 6 9 30.11 1020 10 16 N/A
9:52 pm 21:52 Cloudy 85 29.4 72 22.2 65 65 NE 5 7 30.12 1020 10 16 N/A
10:52 pm 22:52 Cloudy 84 28.9 71 21.7 65 65 E 5 7 30.12 1020 10 16 N/A
11:36 pm 23:36 Cloudy with Nearby Thunderstorms 82 27.8 72 22.2 72 72 SE 12 19 30.14 1021 10 16 0.00 0.00
11:45 pm 23:45 Cloudy with Nearby Thunderstorms 80 26.7 71 21.7 74 74 S 13 20 30.14 1021 9 14 0.02 0.51
11:47 pm 23:47 Cloudy with Nearby Thunderstorms 79 26 72 22 79 79 S 14 22 30.14 1021 8 13 0.04 1.02
11:52 pm 23:52 Cloudy with Heavy Rain 78 25.6 72 22.2 82 82 SSE 13 20 30.14 1021 6 10 0.09 2.29
11:56 pm 23:56 Cloudy with Thunderstorms 78 25.6 72 22.2 82 82 S 13 20 30.14 1021 6 10 0.02 0.51
11:59 pm 23:59 Cloudy with Strong Thunderstorms 77 25 72 22.2 85 85 SSW 15 24 30.14 1021 2 3 0.03 0.76

Powered by AerisWeather